Arden, NC

3:34 AM EST on December 09, 2016 (GMT -0500)
Asheville Regional

Weather History for KAVL - September, 2007

Change the Weather History Date:

Saturday, September 15, 2007

  Actual Average Record
Temperature  
Mean Temperature 64 °F 67 °F  
Max Temperature 72 °F 77 °F 95 °F (1897)
Min Temperature 56 °F 56 °F 36 °F (1985)
Degree Days  
Heating Degree Days 1 1  
Month to date heating degree days 1 7  
Since 1 July heating degree days 1 9  
Cooling Degree Days 0 3  
Month to date cooling degree days 94 67  
Year to date cooling degree days 907 824  
Growing Degree Days 15 (Base 50)    
Moisture  
Dew Point 53 °F    
Average Humidity 67    
Maximum Humidity 93    
Minimum Humidity 40    
Precipitation  
Precipitation 0.00 in 0.13 in 1.52 in (1977)
Month to date precipitation 3.40 2.00  
Year to date precipitation 25.82 33.61  
Snow  
Snow 0.00 in 0.00 in 0.00 in ()
Month to date snowfall 0.0 0.0  
Since 1 July snowfall 0.0 0.0  
Since 1 September snowfall 0.0 0.0  
Snow Depth -    
Sea Level Pressure  
Sea Level Pressure 30.08 in    
Wind  
Wind Speed 10 mph (NNW)    
Max Wind Speed 21 mph    
Max Gust Speed 25 mph    
Visibility 10 miles    
Events      
T = Trace of Precipitation, MM = Missing Value Source: NWS Daily Summary

Daily Weather History Graph

Daily Weather History Graph

Search for Another Location

Airport or City:

Trip Planner

Search our weather history database for the weather conditions in past years. The results will help you decide how hot, cold, wet, or windy it might be!

Date:

Astronomy

Sep. 15, 2007 Rise Set
Actual Time 7:12 AM EDT 7:37 PM EDT
Civil Twilight 6:47 AM EDT 8:03 PM EDT
Nautical Twilight 6:17 AM EDT 8:33 PM EDT
Astronomical Twilight 5:46 AM EDT 9:03 PM EDT
Moon 11:03 AM EDT (9/15) 9:25 PM EDT (9/15)
Length of Visible Light 13h 15m
Length of Day
12h 24m
Waxing Crescent, 15% of the Moon is Illuminated
Sep 15
Waxing Crescent
Sep 19
First Quarter
Sep 26
Full
Oct 3
Last Quarter
Oct 11
New

Hourly Weather History & Observations

Time (EDT) Temp. Dew Point Humidity Pressure Visibility Wind Dir Wind Speed Gust Speed Precip Events Conditions
12:54 AM 64.0 °F 61.0 °F 90% 30.00 in 10.0 mi NNW 6.9 mph - N/A   Scattered Clouds
1:54 AM 64.0 °F 61.0 °F 90% 30.00 in 10.0 mi North 6.9 mph - N/A   Partly Cloudy
2:54 AM 63.0 °F 60.1 °F 90% 30.00 in 10.0 mi North 8.1 mph - N/A   Clear
3:54 AM 63.0 °F 60.1 °F 90% 30.01 in 10.0 mi North 5.8 mph - N/A   Partly Cloudy
4:54 AM 63.0 °F 59.0 °F 87% 30.01 in 10.0 mi Variable 5.8 mph - N/A   Partly Cloudy
5:54 AM 62.1 °F 57.9 °F 86% 30.02 in 10.0 mi North 3.5 mph - N/A   Clear
6:54 AM 62.6 °F 59.0 °F 88% 30.08 in 10.0 mi NNW 10.4 mph - N/A   Mostly Cloudy
7:54 AM 63.0 °F 60.1 °F 90% 30.04 in 9.0 mi NNW 11.5 mph - N/A   Mostly Cloudy
8:28 AM 64.4 °F 60.8 °F 88% 30.10 in 8.0 mi NNW 12.7 mph - N/A   Scattered Clouds
8:54 AM 64.9 °F 60.1 °F 84% 30.05 in 6.0 mi NNW 13.8 mph - N/A   Mostly Cloudy
9:01 AM 66.2 °F 60.8 °F 83% 30.11 in 8.0 mi NNW 16.1 mph - N/A   Clear
9:54 AM 68.0 °F 60.1 °F 76% 30.07 in 7.0 mi NNW 12.7 mph - N/A   Mostly Cloudy
10:54 AM 66.9 °F 57.9 °F 73% 30.09 in 10.0 mi North 11.5 mph 21.9 mph N/A   Scattered Clouds
11:54 AM 68.0 °F 55.9 °F 65% 30.11 in 10.0 mi NNW 18.4 mph 21.9 mph N/A   Partly Cloudy
12:54 PM 68.0 °F 54.0 °F 61% 30.12 in 10.0 mi North 13.8 mph - N/A   Partly Cloudy
1:54 PM 69.1 °F 51.1 °F 53% 30.10 in 10.0 mi North 9.2 mph 19.6 mph N/A   Partly Cloudy
2:54 PM 70.0 °F 48.0 °F 46% 30.09 in 10.0 mi NNW 16.1 mph 24.2 mph N/A   Clear
3:54 PM 71.1 °F 48.0 °F 44% 30.08 in 10.0 mi NNW 13.8 mph - N/A   Clear
4:54 PM 71.1 °F 46.9 °F 42% 30.08 in 10.0 mi NNW 16.1 mph 21.9 mph N/A   Clear
5:54 PM 70.0 °F 45.0 °F 41% 30.09 in 10.0 mi NNW 15.0 mph 21.9 mph N/A   Clear
6:54 PM 68.0 °F 44.1 °F 42% 30.10 in 10.0 mi North 15.0 mph 19.6 mph N/A   Clear
7:54 PM 63.0 °F 43.0 °F 48% 30.12 in 10.0 mi NNW 15.0 mph - N/A   Clear
8:54 PM 60.1 °F 43.0 °F 53% 30.14 in 10.0 mi North 8.1 mph - N/A   Clear
9:54 PM 59.0 °F 42.1 °F 53% 30.16 in 10.0 mi North 5.8 mph - N/A   Clear
10:54 PM 59.0 °F 43.0 °F 55% 30.17 in 10.0 mi North 4.6 mph - N/A   Partly Cloudy
11:54 PM 57.9 °F 44.1 °F 60% 30.17 in 10.0 mi North 5.8 mph - N/A   Partly Cloudy